Location: Ch�ze
(42.9000°N, 0.0333°W)
Time: 00:16:19
(UTC+00:00)

Cosmos 1340 - Pass Details

Date: 24 January 2021
Orbit: 500 x 504 km, 81.2° (Epoch: 24 February)

Event Time Altitude Azimuth Distance (km) Brightness Sun altitude
Rises 17:45:41 0° 157° (SSE) 2,582 6.2 -8.1°
Reaches altitude 10° 17:48:08 10° 142° (SE) 1,704 5.1 -8.6°
Maximum altitude 17:51:01 22° 91° (E) 1,149 3.9 -9.1°
Drops below altitude 10° 17:53:56 10° 40° (NE) 1,714 4.8 -9.6°
Enters shadow 17:54:25 - 36° (NE) 1,875 5.1 -9.7°
